STAR ONE C2

Last updated on Wed Jul 09 2025 00:02:43 GMT+0000 (Coordinated Universal Time)

1 32768U 08018B 25189.40728436 -.00000261 00000+0 00000+0 0 9990 2 32768 0.3624 84.0561 0002924 27.0884 257.0813 1.00271463 63204
UTC large
Height (km)
Speed (km/s)
/
Latitude / Longitude
Inclination (degrees)
Orbital Period (minutes)
Azimuth
Elevation
Range (km)
Doppler Factor

Next 0 passes for location: London (51.5072 / 0.1276)

Sorry there are no passes over London.